CDT,Max TemperatureF,Mean TemperatureF,Min TemperatureF,Max Dew PointF,MeanDew PointF,Min DewpointF,Max Humidity, Mean Humidity, Min Humidity, Max Sea Level PressureIn, Mean Sea Level PressureIn, Min Sea Level PressureIn, Max VisibilityMiles, Mean VisibilityMiles, Min VisibilityMiles, Max Wind SpeedMPH, Mean Wind SpeedMPH, Max Gust SpeedMPH,PrecipitationIn, CloudCover, Events, WindDirDegrees
2013-8-1,74,62,50,58,51,48,99,67,40,30.01,29.97,29.89,10,10,2,14,4,22,0.00,1,,284
2013-8-2,74,62,51,57,52,48,96,69,39,30.01,29.90,29.84,10,10,10,13,2,17,0.00,1,,308
2013-8-3,72,58,43,51,47,43,97,67,39,30.19,30.10,30.02,10,10,10,14,3,20,0.00,1,,320
2013-8-4,71,58,44,52,47,42,97,69,37,30.26,30.19,30.11,10,10,10,8,1,,0.00,1,,314
2013-8-5,72,60,49,61,56,48,96,82,62,30.11,29.96,29.86,10,10,10,13,4,17,0.00,6,Rain,195
2013-8-6,79,70,62,65,59,53,96,73,41,29.88,29.82,29.73,10,9,2,15,5,25,0.02,5,Rain-Thunderstorm,222
2013-8-7,73,62,52,60,56,49,100,79,51,30.03,29.89,29.71,10,8,0,12,4,20,0.08,5,Fog-Rain-Thunderstorm,322
2013-8-8,73,58,43,54,48,42,97,67,40,30.07,30.04,30.00,10,10,5,8,1,,0.00,2,,279
2013-8-9,73,64,54,58,52,47,95,68,39,30.10,30.02,29.98,10,10,10,15,3,21,0.00,5,,300
2013-8-10,68,60,51,54,52,48,95,72,48,30.18,30.15,30.11,10,10,10,6,1,,0.00,7,,310
2013-8-11,68,59,50,59,55,49,98,87,67,30.15,30.10,30.04,10,10,5,8,1,,0.01,3,Rain,193
2013-8-12,76,64,52,60,54,47,100,73,39,30.06,29.99,29.94,10,7,0,13,3,21,0.01,5,Fog-Rain,328
2013-8-13,67,54,41,47,44,41,97,69,41,30.21,30.14,30.07,10,10,10,14,5,21,0.00,2,,347
2013-8-14,70,52,36,49,43,35,97,70,40,30.24,30.19,30.13,10,10,7,12,1,,0.00,1,,290
2013-8-15,75,58,41,54,48,40,96,67,38,30.16,30.13,30.09,10,10,10,10,2,18,0.00,4,,278
2013-8-16,78,62,45,56,50,44,97,66,33,30.21,30.18,30.15,10,10,10,8,1,,0.00,0,,291
2013-8-17,80,64,48,55,52,47,96,65,37,30.27,30.21,30.16,10,10,10,10,1,,0.00,2,,255
2013-8-18,80,64,48,56,52,47,95,67,37,30.22,30.16,30.09,10,10,7,15,2,22,0.00,1,,226
2013-8-19,81,66,51,61,56,50,97,70,43,30.10,30.05,30.00,10,10,3,15,4,22,0.00,0,,234
2013-8-20,86,72,59,66,61,58,96,69,42,30.06,30.01,29.97,10,9,4,20,7,28,0.09,3,Rain,196
2013-8-21,89,76,62,71,65,62,99,76,50,30.05,29.97,29.89,10,10,1,18,8,36,0.61,2,Rain-Thunderstorm,215
2013-8-22,79,68,58,61,57,48,100,76,34,30.15,30.09,30.03,10,8,0,9,1,,0.01,2,Fog,39
2013-8-23,80,66,52,58,55,51,96,68,41,30.22,30.18,30.14,10,10,10,10,4,16,0.00,3,,123
2013-8-24,83,67,52,65,57,47,96,64,37,30.26,30.19,30.13,10,10,10,15,7,22,0.00,1,,176
2013-8-25,90,79,68,69,67,64,87,68,48,30.15,30.09,30.04,10,10,10,21,11,30,0.00,0,,215
2013-8-26,89,77,66,74,68,62,98,73,51,30.18,30.02,29.94,10,10,2,20,8,26,0.99,2,Rain-Thunderstorm,226
2013-8-27,90,81,72,75,71,69,96,78,53,29.97,29.88,29.81,10,9,5,14,4,17,0.00,3,Rain,262
2013-8-28,81,75,69,70,67,65,96,79,57,30.07,30.02,29.91,10,10,5,10,5,,0.00,5,,82
2013-8-29,86,74,62,67,64,62,99,72,48,30.11,30.04,29.96,10,9,5,13,3,17,0.00,2,Rain,172
2013-8-30,81,70,61,72,65,58,90,76,56,29.95,29.89,29.84,10,10,7,16,8,18,0.00,3,,348
2013-8-31,77,65,53,62,59,53,99,81,57,29.93,29.89,29.81,10,10,5,8,3,,0.00,1,,104